Powrót do katalogu

H-2 R/B(2)

AktywnyHEO
NORAD 23523·ROCKET BODY·🇯🇵 Japan

Wystrzelony Mar 18, 1995 z Tanegashima Space Center

Loading…

Następne Przeloty (najbliższe 24 godziny)

TLE

ŚwieżeSource: Space-Track

Epoka: Sep 14, 2026, 12:39 UTC

1 23523U 95011C   26257.52743388  .00006566  00000-0  10006-2 0  9995
2 23523  25.1433 253.2457 6446598  46.8146 351.5937  3.40640185337258

Śledź H-2 R/B(2) w czasie rzeczywistym z AllMySat

Download on the App Store